Weather History for KTQE - August, 2013

Change the Weather History Date:

Friday, August 2, 2013

  Actual Average (WUND) Record (WUND)
Temperature  
Mean Temperature 72 °F -  
Max Temperature 84 °F - - (-1)
Min Temperature 62 °F - - (-1)
Cooling Degree Days 7    
Growing Degree Days 22 (Base 50)    
Moisture  
Dew Point 63 °F    
Average Humidity 81    
Maximum Humidity 96    
Minimum Humidity 58    
Precipitation  
Precipitation 0.00 in - - ()
Sea Level Pressure  
Sea Level Pressure 29.91 in    
Wind  
Wind Speed 3 mph (NNE)    
Max Wind Speed 13 mph    
Max Gust Speed -    
Visibility 6 miles    
Events      
Averages and records for this station are not official NWS values.
T = Trace of Precipitation, MM = Missing Value Source: NWS Daily Summary

Daily Weather History Graph

Daily Weather History Graph

Search for Another Location

Airport or City:

Trip Planner

Search our weather history database for the weather conditions in past years. The results will help you decide how hot, cold, wet, or windy it might be!

Date:

Astronomy

Aug. 02, 2013 Rise Set
Actual Time 6:20 AM CDT 8:41 PM CDT
Civil Twilight 5:48 AM CDT 9:12 PM CDT
Nautical Twilight 5:10 AM CDT 9:50 PM CDT
Astronomical Twilight 4:27 AM CDT 10:33 PM CDT
Moon 2:41 AM CDT (8/2) 5:40 PM CDT (8/2)
Length of Visible Light 15h 23m
Length of Day
14h 21m
Waning Crescent, 15% of the Moon is Illuminated
Aug 2
Waning Crescent
Aug 6
New
Aug 14
First Quarter
Aug 20
Full
Aug 28
Last Quarter

Hourly Weather History & Observations

Time (CDT) Temp. Heat Index Dew Point Humidity Pressure Visibility Wind Dir Wind Speed Gust Speed Precip Events Conditions
12:54 AM 66.0 °F - 63.0 °F 90% 29.88 in 5.0 mi North 3.5 mph - N/A   Partly Cloudy
1:54 AM 64.9 °F - 63.0 °F 93% 29.90 in 4.0 mi NNW 3.5 mph - N/A   Clear
2:54 AM 64.9 °F - 63.0 °F 93% 29.88 in 4.0 mi North 3.5 mph - N/A   Clear
3:42 AM 66.2 °F - 64.4 °F 94% 29.91 in 3.0 mi Calm Calm - N/A   Mostly Cloudy
3:54 AM 66.0 °F - 64.0 °F 93% 29.87 in 3.0 mi Calm Calm - N/A   Overcast
4:54 AM 66.0 °F - 64.0 °F 93% 29.87 in 3.0 mi Calm Calm - N/A   Overcast
5:22 AM 64.4 °F - 62.6 °F 94% 29.90 in 3.0 mi North 3.5 mph - N/A   Partly Cloudy
5:43 AM 64.4 °F - 62.6 °F 94% 29.90 in 2.5 mi Calm Calm - N/A   Clear
5:54 AM 63.0 °F - 61.0 °F 93% 29.87 in 1.8 mi North 3.5 mph - N/A   Clear
6:11 AM 62.6 °F - 60.8 °F 94% 29.89 in 2.0 mi Calm Calm - N/A   Clear
6:50 AM 62.6 °F - 60.8 °F 94% 29.89 in 1.5 mi Calm Calm - N/A   Clear
6:54 AM 62.1 °F - 61.0 °F 96% 29.87 in 1.0 mi Calm Calm - N/A   Clear
7:42 AM 64.4 °F - 62.6 °F 94% 29.91 in 2.0 mi Calm Calm - N/A   Clear
7:54 AM 64.9 °F - 63.0 °F 93% 29.88 in 2.5 mi Calm Calm - N/A   Clear
8:18 AM 66.2 °F - 64.4 °F 94% 29.91 in 3.0 mi Calm Calm - N/A   Clear
8:54 AM 71.1 °F - 66.0 °F 84% 29.89 in 5.0 mi Calm Calm - N/A   Haze
9:54 AM 75.0 °F - 66.9 °F 76% 29.88 in 10.0 mi NE 5.8 mph - N/A   Clear
10:54 AM 77.0 °F - 66.9 °F 71% 29.91 in 10.0 mi NNE 3.5 mph - N/A   Clear
11:54 AM 80.1 °F 82.3 °F 66.9 °F 64% 29.91 in 10.0 mi Variable 5.8 mph - N/A   Clear
12:54 PM 81.0 °F 83.3 °F 66.9 °F 62% 29.91 in 10.0 mi Calm Calm - N/A   Partly Cloudy
1:54 PM 82.0 °F 84.5 °F 66.9 °F 60% 29.91 in 10.0 mi East 3.5 mph - N/A   Mostly Cloudy
2:54 PM 82.0 °F 84.1 °F 66.0 °F 58% 29.89 in 10.0 mi NE 5.8 mph - N/A   Mostly Cloudy
3:54 PM 79.0 °F - 66.9 °F 66% 29.91 in 10.0 mi NE 11.5 mph - N/A   Partly Cloudy
4:54 PM 80.1 °F 81.9 °F 64.9 °F 60% 29.92 in 10.0 mi NNE 10.4 mph - N/A   Clear
5:54 PM 77.0 °F - 62.1 °F 60% 29.90 in 10.0 mi ENE 12.7 mph - N/A   Clear
6:54 PM 77.0 °F - 62.1 °F 60% 29.91 in 10.0 mi NE 6.9 mph - N/A   Clear
7:54 PM 72.0 °F - 61.0 °F 68% 29.94 in 10.0 mi NNE 12.7 mph - N/A   Clear
8:54 PM 69.1 °F - 61.0 °F 75% 29.97 in 10.0 mi NNE 6.9 mph - N/A   Mostly Cloudy
9:54 PM 68.0 °F - 61.0 °F 78% 30.00 in 10.0 mi North 4.6 mph - N/A   Overcast
10:54 PM 64.9 °F - 61.0 °F 87% 30.01 in 9.0 mi North 4.6 mph - N/A   Scattered Clouds
11:54 PM 66.0 °F - 61.0 °F 84% 30.01 in 10.0 mi North 4.6 mph - N/A   Overcast